Time,TemperatureF,DewpointF,PressureIn,WindDirection,WindDirectionDegrees,WindSpeedMPH,WindSpeedGustMPH,Humidity,HourlyPrecipIn,Conditions,Clouds,dailyrainin,SoftwareType,DateUTC
2013-08-13 00:00:00,71.8,70.0,29.92,NE,36,0.0,0.0,94,0.00,,,0.00,Wunderground v.1.15,2013-08-13 05:00:00,
2013-08-13 00:03:00,71.8,70.0,29.92,NE,36,1.0,2.0,94,0.00,,---,0.00,VWS V14.01,2013-08-13 05:03:00,
2013-08-13 00:05:00,71.8,70.0,29.92,NE,36,0.0,0.0,94,0.00,,,0.00,Wunderground v.1.15,2013-08-13 05:05:00,
2013-08-13 00:08:00,71.8,70.0,29.92,NE,36,1.0,2.0,94,0.00,,---,0.00,VWS V14.01,2013-08-13 05:08:00,
2013-08-13 00:10:00,71.8,70.0,29.92,NE,36,1.0,2.0,94,0.00,,,0.00,Wunderground v.1.15,2013-08-13 05:10:00,
2013-08-13 00:13:00,71.6,69.8,29.91,NE,36,0.0,2.0,94,0.00,,---,0.00,VWS V14.01,2013-08-13 05:13:00,
2013-08-13 00:15:00,71.6,69.8,29.91,NE,36,1.0,2.0,94,0.00,,,0.00,Wunderground v.1.15,2013-08-13 05:15:00,
2013-08-13 00:18:00,71.6,69.8,29.91,NE,36,0.0,2.0,94,0.00,,---,0.00,VWS V14.01,2013-08-13 05:18:00,
2013-08-13 00:20:00,71.6,69.8,29.91,NE,36,0.0,0.0,94,0.00,,,0.00,Wunderground v.1.15,2013-08-13 05:20:00,
2013-08-13 00:23:00,71.6,69.8,29.91,NE,36,0.0,0.0,94,0.00,,---,0.00,VWS V14.01,2013-08-13 05:23:00,
2013-08-13 00:25:00,71.6,70.1,29.91,NE,36,0.0,0.0,95,0.00,,,0.00,Wunderground v.1.15,2013-08-13 05:25:00,
2013-08-13 00:28:00,71.6,70.1,29.92,NE,36,1.0,2.0,95,0.00,,---,0.00,VWS V14.01,2013-08-13 05:28:00,
2013-08-13 00:30:00,71.6,70.1,29.92,NNE,33,0.0,2.0,95,0.00,,,0.00,Wunderground v.1.15,2013-08-13 05:30:00,
2013-08-13 00:33:00,71.6,70.1,29.92,NW,310,2.0,3.0,95,0.00,,---,0.00,VWS V14.01,2013-08-13 05:33:00,
2013-08-13 00:35:00,71.6,70.1,29.92,NW,310,1.0,2.0,95,0.00,,,0.00,Wunderground v.1.15,2013-08-13 05:35:00,
2013-08-13 00:38:00,71.6,70.1,29.92,NW,310,1.0,3.0,95,0.00,,---,0.00,VWS V14.01,2013-08-13 05:38:00,
2013-08-13 00:43:00,71.6,70.1,29.91,NW,310,0.0,0.0,95,0.00,,---,0.00,VWS V14.01,2013-08-13 05:43:00,
2013-08-13 00:45:00,71.6,70.1,29.91,NW,310,1.0,2.0,95,0.00,,,0.00,Wunderground v.1.15,2013-08-13 05:45:00,
2013-08-13 00:48:00,71.6,70.1,29.91,NW,310,0.0,0.0,95,0.00,,---,0.00,VWS V14.01,2013-08-13 05:48:00,
2013-08-13 00:50:00,71.6,70.1,29.91,NW,310,0.0,0.0,95,0.00,,,0.00,Wunderground v.1.15,2013-08-13 05:50:00,
2013-08-13 00:53:00,71.8,70.3,29.91,NW,310,0.0,0.0,95,0.00,,---,0.00,VWS V14.01,2013-08-13 05:53:00,
2013-08-13 00:55:00,71.8,70.3,29.91,NW,310,0.0,0.0,95,0.00,,,0.00,Wunderground v.1.15,2013-08-13 05:55:00,
2013-08-13 00:59:00,71.6,70.1,29.91,NW,310,0.0,0.0,95,0.00,,---,0.00,VWS V14.01,2013-08-13 05:59:00,
2013-08-13 01:00:00,71.6,70.1,29.91,NW,310,0.0,0.0,95,0.00,,,0.00,Wunderground v.1.15,2013-08-13 06:00:00,
2013-08-13 01:04:00,71.8,70.3,29.91,NW,310,0.0,0.0,95,0.00,,---,0.00,VWS V14.01,2013-08-13 06:04:00,
2013-08-13 01:05:00,71.6,70.1,29.91,NW,310,0.0,0.0,95,0.00,,,0.00,Wunderground v.1.15,2013-08-13 06:05:00,
2013-08-13 01:09:00,71.6,70.1,29.90,NW,317,1.0,3.0,95,0.00,,---,0.00,VWS V14.01,2013-08-13 06:09:00,
2013-08-13 01:10:00,71.6,70.1,29.90,NW,317,0.0,0.0,95,0.00,,,0.00,Wunderground v.1.15,2013-08-13 06:10:00,
2013-08-13 01:14:00,71.5,70.0,29.90,North,8,0.0,3.0,95,0.00,,---,0.00,VWS V14.01,2013-08-13 06:14:00,
2013-08-13 01:15:00,71.5,70.0,29.90,North,8,1.0,1.0,95,0.00,,,0.00,Wunderground v.1.15,2013-08-13 06:15:00,
2013-08-13 01:19:00,71.5,70.0,29.90,North,8,0.0,3.0,95,0.00,,---,0.00,VWS V14.01,2013-08-13 06:19:00,
2013-08-13 01:20:00,71.5,70.0,29.90,North,8,1.0,1.0,95,0.00,,,0.00,Wunderground v.1.15,2013-08-13 06:20:00,
2013-08-13 01:25:00,71.5,70.0,29.90,North,8,0.0,0.0,95,0.00,,---,0.00,VWS V14.01,2013-08-13 06:25:00,
2013-08-13 01:30:00,71.5,70.0,29.90,North,8,0.0,0.0,95,0.00,,---,0.00,VWS V14.01,2013-08-13 06:30:00,
2013-08-13 01:35:00,71.5,70.0,29.89,North,8,0.0,0.0,95,0.00,,---,0.00,VWS V14.01,2013-08-13 06:35:00,
2013-08-13 01:40:00,71.5,70.0,29.89,North,8,0.0,0.0,95,0.00,,---,0.00,VWS V14.01,2013-08-13 06:40:00,
2013-08-13 01:45:00,71.5,70.0,29.90,North,8,0.0,0.0,95,0.00,,,0.00,Wunderground v.1.15,2013-08-13 06:45:00,
2013-08-13 01:50:00,71.5,70.0,29.90,North,8,0.0,0.0,95,0.00,,,0.00,Wunderground v.1.15,2013-08-13 06:50:00,
2013-08-13 01:55:00,71.5,70.0,29.90,North,8,0.0,0.0,95,0.00,,,0.00,Wunderground v.1.15,2013-08-13 06:55:00,
2013-08-13 02:00:00,71.5,70.0,29.90,North,8,0.0,0.0,95,0.00,,,0.00,Wunderground v.1.15,2013-08-13 07:00:00,
2013-08-13 02:05:00,71.5,70.0,29.90,North,8,0.0,0.0,95,0.00,,,0.00,Wunderground v.1.15,2013-08-13 07:05:00,
2013-08-13 02:06:00,71.5,70.0,29.90,North,8,0.0,0.0,95,0.00,,---,0.00,VWS V14.01,2013-08-13 07:06:00,
2013-08-13 02:10:00,71.5,70.0,29.90,North,8,0.0,0.0,95,0.00,,,0.00,Wunderground v.1.15,2013-08-13 07:10:00,
2013-08-13 02:11:00,71.5,70.0,29.90,North,8,0.0,0.0,95,0.00,,---,0.00,VWS V14.01,2013-08-13 07:11:00,
2013-08-13 02:15:00,71.5,70.0,29.90,North,8,0.0,0.0,95,0.00,,,0.00,Wunderground v.1.15,2013-08-13 07:15:00,
2013-08-13 02:16:00,71.6,70.1,29.90,North,8,0.0,0.0,95,0.00,,---,0.00,VWS V14.01,2013-08-13 07:16:00,
2013-08-13 02:20:00,71.6,70.1,29.90,North,8,0.0,0.0,95,0.00,,,0.00,Wunderground v.1.15,2013-08-13 07:20:00,
2013-08-13 02:22:00,71.6,70.1,29.90,North,8,0.0,0.0,95,0.00,,---,0.00,VWS V14.01,2013-08-13 07:22:00,
2013-08-13 02:25:00,71.6,70.1,29.90,North,8,0.0,0.0,95,0.00,,,0.00,Wunderground v.1.15,2013-08-13 07:25:00,
2013-08-13 02:27:00,71.6,70.1,29.90,North,8,0.0,0.0,95,0.00,,---,0.00,VWS V14.01,2013-08-13 07:27:00,
2013-08-13 02:30:00,71.6,70.1,29.90,North,8,0.0,0.0,95,0.00,,,0.00,Wunderground v.1.15,2013-08-13 07:30:00,
2013-08-13 02:32:00,71.6,70.1,29.90,North,8,0.0,0.0,95,0.00,,---,0.00,VWS V14.01,2013-08-13 07:32:00,
2013-08-13 02:35:00,71.6,70.1,29.90,North,8,0.0,0.0,95,0.00,,,0.00,Wunderground v.1.15,2013-08-13 07:35:00,
2013-08-13 02:37:00,71.6,70.1,29.90,North,8,0.0,0.0,95,0.00,,---,0.00,VWS V14.01,2013-08-13 07:37:00,
2013-08-13 02:40:00,71.6,70.1,29.90,North,8,0.0,0.0,95,0.00,,,0.00,Wunderground v.1.15,2013-08-13 07:40:00,
2013-08-13 02:42:00,71.6,70.1,29.90,North,8,0.0,2.0,95,0.00,,---,0.00,VWS V14.01,2013-08-13 07:42:00,
2013-08-13 02:45:00,71.6,70.1,29.89,North,8,0.0,0.0,95,0.00,,,0.00,Wunderground v.1.15,2013-08-13 07:45:00,
2013-08-13 02:47:00,71.6,70.1,29.89,North,8,0.0,2.0,95,0.00,,---,0.00,VWS V14.01,2013-08-13 07:47:00,
2013-08-13 02:50:00,71.5,70.0,29.89,North,8,0.0,0.0,95,0.00,,,0.00,Wunderground v.1.15,2013-08-13 07:50:00,
2013-08-13 02:52:00,71.5,70.0,29.89,North,8,0.0,0.0,95,0.00,,---,0.00,VWS V14.01,2013-08-13 07:52:00,
2013-08-13 02:55:00,71.5,70.0,29.90,North,8,0.0,0.0,95,0.00,,,0.00,Wunderground v.1.15,2013-08-13 07:55:00,
2013-08-13 02:58:00,71.5,70.0,29.90,North,8,0.0,0.0,95,0.00,,---,0.00,VWS V14.01,2013-08-13 07:58:00,
2013-08-13 03:03:00,71.5,70.0,29.89,North,8,0.0,0.0,95,0.00,,---,0.00,VWS V14.01,2013-08-13 08:03:00,
2013-08-13 03:05:00,71.5,70.0,29.89,North,8,0.0,0.0,95,0.00,,,0.00,Wunderground v.1.15,2013-08-13 08:05:00,
2013-08-13 03:08:00,71.5,70.0,29.89,North,8,0.0,1.0,95,0.00,,---,0.00,VWS V14.01,2013-08-13 08:08:00,
2013-08-13 03:10:00,71.5,70.0,29.89,North,8,0.0,0.0,95,0.00,,,0.00,Wunderground v.1.15,2013-08-13 08:10:00,
2013-08-13 03:13:00,71.5,70.0,29.89,North,8,0.0,0.0,95,0.00,,---,0.00,VWS V14.01,2013-08-13 08:13:00,
2013-08-13 03:15:00,71.5,70.0,29.89,North,8,0.0,2.0,95,0.00,,,0.00,Wunderground v.1.15,2013-08-13 08:15:00,
2013-08-13 03:19:00,71.6,70.1,29.89,North,8,0.0,2.0,95,0.00,,---,0.00,VWS V14.01,2013-08-13 08:19:00,
2013-08-13 03:20:00,71.6,70.1,29.89,North,8,0.0,0.0,95,0.00,,,0.00,Wunderground v.1.15,2013-08-13 08:20:00,
2013-08-13 03:24:00,71.6,70.4,29.89,North,8,0.0,2.0,96,0.00,,---,0.00,VWS V14.01,2013-08-13 08:24:00,
2013-08-13 03:25:00,71.6,70.4,29.89,North,8,0.0,0.0,96,0.00,,,0.00,Wunderground v.1.15,2013-08-13 08:25:00,
2013-08-13 03:29:00,71.6,70.1,29.89,North,8,0.0,2.0,95,0.00,,---,0.00,VWS V14.01,2013-08-13 08:29:00,
2013-08-13 03:30:00,71.6,70.1,29.89,North,8,0.0,0.0,95,0.00,,,0.00,Wunderground v.1.15,2013-08-13 08:30:00,
2013-08-13 03:35:00,71.5,70.0,29.89,North,8,0.0,0.0,95,0.00,,,0.00,Wunderground v.1.15,2013-08-13 08:35:00,
2013-08-13 03:40:00,71.5,70.0,29.89,North,8,0.0,0.0,95,0.00,,,0.00,Wunderground v.1.15,2013-08-13 08:40:00,
2013-08-13 03:41:00,71.5,70.0,29.89,North,8,0.0,0.0,95,0.00,,---,0.00,VWS V14.01,2013-08-13 08:41:00,
2013-08-13 03:45:00,71.5,70.0,29.89,North,8,0.0,0.0,95,0.00,,,0.00,Wunderground v.1.15,2013-08-13 08:45:00,
2013-08-13 03:46:00,71.5,70.0,29.89,North,8,0.0,1.0,95,0.00,,---,0.00,VWS V14.01,2013-08-13 08:46:00,
2013-08-13 03:50:00,71.5,70.0,29.89,North,8,0.0,0.0,95,0.00,,,0.00,Wunderground v.1.15,2013-08-13 08:50:00,
2013-08-13 03:51:00,71.5,70.0,29.90,North,8,0.0,0.0,95,0.00,,---,0.00,VWS V14.01,2013-08-13 08:51:00,
2013-08-13 03:55:00,71.5,70.0,29.90,North,8,0.0,0.0,95,0.00,,,0.00,Wunderground v.1.15,2013-08-13 08:55:00,
2013-08-13 03:56:00,71.5,70.0,29.90,North,8,0.0,0.0,95,0.00,,---,0.00,VWS V14.01,2013-08-13 08:56:00,
2013-08-13 04:00:00,71.5,70.0,29.89,North,8,0.0,0.0,95,0.00,,,0.00,Wunderground v.1.15,2013-08-13 09:00:00,
2013-08-13 04:01:00,71.5,70.0,29.90,North,8,0.0,0.0,95,0.00,,---,0.00,VWS V14.01,2013-08-13 09:01:00,
2013-08-13 04:05:00,71.3,69.8,29.90,North,8,0.0,0.0,95,0.00,,,0.00,Wunderground v.1.15,2013-08-13 09:05:00,
2013-08-13 04:06:00,71.3,69.8,29.90,North,8,0.0,0.0,95,0.00,,---,0.00,VWS V14.01,2013-08-13 09:06:00,
2013-08-13 04:10:00,71.3,69.8,29.90,North,8,0.0,0.0,95,0.00,,,0.00,Wunderground v.1.15,2013-08-13 09:10:00,
2013-08-13 04:11:00,71.3,69.8,29.90,North,8,0.0,0.0,95,0.00,,---,0.00,VWS V14.01,2013-08-13 09:11:00,
2013-08-13 04:15:00,71.3,69.8,29.89,North,8,0.0,0.0,95,0.00,,,0.00,Wunderground v.1.15,2013-08-13 09:15:00,
2013-08-13 04:17:00,71.3,70.1,29.90,North,8,0.0,0.0,96,0.00,,---,0.00,VWS V14.01,2013-08-13 09:17:00,
2013-08-13 04:20:00,71.3,70.1,29.90,North,8,0.0,0.0,96,0.00,,,0.00,Wunderground v.1.15,2013-08-13 09:20:00,
2013-08-13 04:22:00,71.3,70.1,29.90,North,8,1.0,2.0,96,0.00,,---,0.00,VWS V14.01,2013-08-13 09:22:00,
2013-08-13 04:25:00,71.3,70.1,29.89,North,8,0.0,1.0,96,0.00,,,0.00,Wunderground v.1.15,2013-08-13 09:25:00,
2013-08-13 04:27:00,71.3,69.8,29.90,North,8,0.0,3.0,95,0.00,,---,0.00,VWS V14.01,2013-08-13 09:27:00,
2013-08-13 04:30:00,71.3,70.1,29.90,North,8,0.0,0.0,96,0.00,,,0.00,Wunderground v.1.15,2013-08-13 09:30:00,
2013-08-13 04:33:00,71.1,69.9,29.90,North,8,0.0,0.0,96,0.00,,---,0.00,VWS V14.01,2013-08-13 09:33:00,
2013-08-13 04:35:00,71.1,69.9,29.89,North,8,0.0,0.0,96,0.00,,,0.00,Wunderground v.1.15,2013-08-13 09:35:00,
2013-08-13 04:38:00,71.1,69.9,29.89,North,8,0.0,0.0,96,0.00,,---,0.00,VWS V14.01,2013-08-13 09:38:00,
2013-08-13 04:40:00,71.1,69.9,29.89,North,8,0.0,0.0,96,0.00,,,0.00,Wunderground v.1.15,2013-08-13 09:40:00,
2013-08-13 04:43:00,71.1,69.9,29.89,North,8,0.0,0.0,96,0.00,,---,0.00,VWS V14.01,2013-08-13 09:43:00,
2013-08-13 04:45:00,71.1,69.9,29.89,North,8,0.0,0.0,96,0.00,,,0.00,Wunderground v.1.15,2013-08-13 09:45:00,
2013-08-13 04:48:00,71.1,69.9,29.89,North,8,0.0,0.0,96,0.00,,---,0.00,VWS V14.01,2013-08-13 09:48:00,
2013-08-13 04:50:00,71.1,69.9,29.89,North,8,0.0,0.0,96,0.00,,,0.00,Wunderground v.1.15,2013-08-13 09:50:00,
2013-08-13 04:53:00,71.1,69.9,29.89,North,8,0.0,0.0,96,0.00,,---,0.00,VWS V14.01,2013-08-13 09:53:00,
2013-08-13 04:55:00,71.1,69.9,29.89,North,8,0.0,0.0,96,0.00,,,0.00,Wunderground v.1.15,2013-08-13 09:55:00,
2013-08-13 04:59:00,71.1,69.9,29.89,North,8,0.0,0.0,96,0.00,,---,0.00,VWS V14.01,2013-08-13 09:59:00,
2013-08-13 05:00:00,71.1,69.9,29.89,North,8,0.0,0.0,96,0.00,,,0.00,Wunderground v.1.15,2013-08-13 10:00:00,
2013-08-13 05:04:00,71.1,69.9,29.89,North,8,0.0,0.0,96,0.00,,---,0.00,VWS V14.01,2013-08-13 10:04:00,
2013-08-13 05:05:00,71.1,69.9,29.89,North,8,0.0,0.0,96,0.00,,,0.00,Wunderground v.1.15,2013-08-13 10:05:00,
2013-08-13 05:09:00,71.1,69.9,29.89,North,8,0.0,0.0,96,0.00,,---,0.00,VWS V14.01,2013-08-13 10:09:00,
2013-08-13 05:10:00,71.1,69.9,29.89,North,8,0.0,0.0,96,0.00,,,0.00,Wunderground v.1.15,2013-08-13 10:10:00,
2013-08-13 05:14:00,71.1,69.9,29.89,North,8,0.0,0.0,96,0.00,,---,0.00,VWS V14.01,2013-08-13 10:14:00,
2013-08-13 05:15:00,71.1,69.9,29.89,North,8,0.0,0.0,96,0.00,,,0.00,Wunderground v.1.15,2013-08-13 10:15:00,
2013-08-13 05:19:00,71.1,69.9,29.89,North,8,0.0,1.0,96,0.00,,---,0.00,VWS V14.01,2013-08-13 10:19:00,
2013-08-13 05:20:00,71.1,69.9,29.89,North,8,0.0,0.0,96,0.00,,,0.00,Wunderground v.1.15,2013-08-13 10:20:00,
2013-08-13 05:24:00,71.1,69.9,29.89,North,8,1.0,2.0,96,0.00,,---,0.00,VWS V14.01,2013-08-13 10:24:00,
2013-08-13 05:29:00,71.1,69.9,29.89,North,8,1.0,2.0,96,0.00,,---,0.00,VWS V14.01,2013-08-13 10:29:00,
2013-08-13 05:30:00,71.1,69.9,29.89,North,8,0.0,0.0,96,0.00,,,0.00,Wunderground v.1.15,2013-08-13 10:30:00,
2013-08-13 05:35:00,71.1,69.9,29.90,North,8,1.0,1.0,96,0.00,,,0.00,Wunderground v.1.15,2013-08-13 10:35:00,
2013-08-13 05:40:00,71.3,70.1,29.90,NNE,15,5.0,5.0,96,0.00,,---,0.00,VWS V14.01,2013-08-13 10:40:00,
2013-08-13 05:45:00,71.1,69.9,29.90,NW,304,1.0,2.0,96,0.00,,,0.00,Wunderground v.1.15,2013-08-13 10:45:00,
2013-08-13 05:50:00,71.3,70.1,29.90,NNE,19,2.0,3.0,96,0.00,,,0.00,Wunderground v.1.15,2013-08-13 10:50:00,
2013-08-13 05:55:00,71.3,70.1,29.90,NNE,29,3.0,5.0,96,0.00,,,0.00,Wunderground v.1.15,2013-08-13 10:55:00,
2013-08-13 06:00:00,71.1,69.9,29.91,NNE,27,3.0,5.0,96,0.00,,,0.00,Wunderground v.1.15,2013-08-13 11:00:00,
2013-08-13 06:05:00,71.1,69.6,29.91,North,11,3.0,5.0,95,0.00,,,0.00,Wunderground v.1.15,2013-08-13 11:05:00,
2013-08-13 06:10:00,71.1,69.6,29.91,North,1,3.0,3.0,95,0.00,,---,0.00,VWS V14.01,2013-08-13 11:10:00,
2013-08-13 06:15:00,71.1,69.6,29.92,North,1,2.0,3.0,95,0.00,,,0.00,Wunderground v.1.15,2013-08-13 11:15:00,
2013-08-13 06:16:00,71.1,69.6,29.92,NNW,341,5.0,5.0,95,0.00,,---,0.00,VWS V14.01,2013-08-13 11:16:00,
2013-08-13 06:20:00,71.1,69.6,29.92,NNW,345,2.0,2.0,95,0.00,,,0.00,Wunderground v.1.15,2013-08-13 11:20:00,
2013-08-13 06:21:00,71.1,69.6,29.92,NNW,345,1.0,1.0,95,0.00,,---,0.00,VWS V14.01,2013-08-13 11:21:00,
2013-08-13 06:25:00,71.1,69.6,29.92,NE,44,3.0,5.0,95,0.00,,,0.00,Wunderground v.1.15,2013-08-13 11:25:00,
2013-08-13 06:26:00,71.1,69.6,29.92,NE,46,2.0,6.0,95,0.00,,---,0.00,VWS V14.01,2013-08-13 11:26:00,
2013-08-13 06:30:00,71.3,69.8,29.93,NE,42,2.0,2.0,95,0.00,,,0.00,Wunderground v.1.15,2013-08-13 11:30:00,
2013-08-13 06:31:00,71.3,69.8,29.93,NE,42,2.0,2.0,95,0.00,,---,0.00,VWS V14.01,2013-08-13 11:31:00,
2013-08-13 06:35:00,71.3,69.8,29.93,NE,42,1.0,2.0,95,0.00,,,0.00,Wunderground v.1.15,2013-08-13 11:35:00,
2013-08-13 06:37:00,71.3,69.8,29.93,NE,42,2.0,5.0,95,0.00,,---,0.00,VWS V14.01,2013-08-13 11:37:00,
2013-08-13 06:40:00,71.3,69.5,29.93,NE,39,1.0,3.0,94,0.00,,,0.00,Wunderground v.1.15,2013-08-13 11:40:00,
2013-08-13 06:42:00,71.3,69.5,29.93,NNE,18,3.0,3.0,94,0.00,,---,0.00,VWS V14.01,2013-08-13 11:42:00,
2013-08-13 06:45:00,71.3,69.5,29.93,NNE,19,1.0,3.0,94,0.00,,,0.00,Wunderground v.1.15,2013-08-13 11:45:00,
2013-08-13 06:47:00,71.3,69.5,29.93,NNE,19,0.0,5.0,94,0.00,,---,0.00,VWS V14.01,2013-08-13 11:47:00,
2013-08-13 06:50:00,71.3,69.5,29.93,NNE,19,1.0,1.0,94,0.00,,,0.00,Wunderground v.1.15,2013-08-13 11:50:00,
2013-08-13 06:53:00,71.3,69.5,29.93,NNE,19,2.0,2.0,94,0.00,,---,0.00,VWS V14.01,2013-08-13 11:53:00,
2013-08-13 06:55:00,71.5,69.7,29.93,NNE,19,1.0,1.0,94,0.00,,,0.00,Wunderground v.1.15,2013-08-13 11:55:00,
2013-08-13 06:58:00,71.5,69.4,29.93,NNE,19,0.0,2.0,93,0.00,,---,0.00,VWS V14.01,2013-08-13 11:58:00,
2013-08-13 07:00:00,71.5,69.4,29.93,NNE,19,1.0,1.0,93,0.00,,,0.00,Wunderground v.1.15,2013-08-13 12:00:00,
2013-08-13 07:03:00,71.5,69.4,29.93,NNE,19,0.0,0.0,93,0.00,,---,0.00,VWS V14.01,2013-08-13 12:03:00,
2013-08-13 07:05:00,71.5,69.4,29.93,NNE,19,0.0,1.0,93,0.00,,,0.00,Wunderground v.1.15,2013-08-13 12:05:00,
2013-08-13 07:08:00,71.5,69.4,29.93,NNE,19,1.0,2.0,93,0.00,,---,0.00,VWS V14.01,2013-08-13 12:08:00,
2013-08-13 07:10:00,71.6,69.5,29.93,NNE,19,0.0,0.0,93,0.00,,,0.00,Wunderground v.1.15,2013-08-13 12:10:00,
2013-08-13 07:13:00,71.6,69.5,29.93,NNE,19,2.0,3.0,93,0.00,,---,0.00,VWS V14.01,2013-08-13 12:13:00,
2013-08-13 07:15:00,71.6,69.5,29.93,NNE,19,1.0,1.0,93,0.00,,,0.00,Wunderground v.1.15,2013-08-13 12:15:00,
2013-08-13 07:18:00,71.6,69.5,29.93,NNE,19,2.0,3.0,93,0.00,,---,0.00,VWS V14.01,2013-08-13 12:18:00,
2013-08-13 07:20:00,71.6,69.5,29.93,NNE,19,1.0,1.0,93,0.00,,,0.00,Wunderground v.1.15,2013-08-13 12:20:00,
2013-08-13 07:23:00,71.6,69.5,29.93,NNE,19,0.0,2.0,93,0.00,,---,0.00,VWS V14.01,2013-08-13 12:23:00,
2013-08-13 07:25:00,71.8,69.7,29.93,NNE,19,1.0,1.0,93,0.00,,,0.00,Wunderground v.1.15,2013-08-13 12:25:00,
2013-08-13 07:29:00,71.8,69.7,29.94,NNE,19,1.0,3.0,93,0.00,,---,0.00,VWS V14.01,2013-08-13 12:29:00,
2013-08-13 07:30:00,71.8,69.7,29.94,NNE,19,0.0,0.0,93,0.00,,,0.00,Wunderground v.1.15,2013-08-13 12:30:00,
2013-08-13 07:34:00,71.8,69.7,29.94,NNE,19,0.0,1.0,93,0.00,,---,0.00,VWS V14.01,2013-08-13 12:34:00,
2013-08-13 07:35:00,71.8,69.3,29.94,NNE,19,0.0,0.0,92,0.00,,,0.00,Wunderground v.1.15,2013-08-13 12:35:00,
2013-08-13 07:39:00,71.8,69.3,29.94,NNE,19,0.0,1.0,92,0.00,,---,0.00,VWS V14.01,2013-08-13 12:39:00,
2013-08-13 07:40:00,71.8,69.3,29.94,NNE,19,0.0,0.0,92,0.00,,,0.00,Wunderground v.1.15,2013-08-13 12:40:00,
2013-08-13 07:44:00,72.0,69.6,29.94,NNE,19,3.0,5.0,92,0.00,,---,0.00,VWS V14.01,2013-08-13 12:44:00,
2013-08-13 07:45:00,72.0,69.5,29.94,NNE,20,0.0,3.0,92,0.00,,,0.00,Wunderground v.1.15,2013-08-13 12:45:00,
2013-08-13 07:49:00,72.0,69.6,29.93,NNE,23,0.0,5.0,92,0.00,,---,0.00,VWS V14.01,2013-08-13 12:49:00,
2013-08-13 07:50:00,72.0,69.5,29.93,NNE,23,1.0,1.0,92,0.00,,,0.00,Wunderground v.1.15,2013-08-13 12:50:00,
2013-08-13 07:55:00,72.1,69.3,29.94,NNE,23,0.0,0.0,91,0.00,,---,0.00,VWS V14.01,2013-08-13 12:55:00,
2013-08-13 08:00:00,72.3,69.5,29.93,NE,56,6.0,6.0,91,0.00,,---,0.00,VWS V14.01,2013-08-13 13:00:00,
2013-08-13 08:05:00,72.5,69.4,29.94,NNE,16,0.0,6.0,90,0.00,,---,0.00,VWS V14.01,2013-08-13 13:05:00,
2013-08-13 08:10:00,72.7,69.6,29.94,NNW,341,2.0,2.0,90,0.00,,,0.00,Wunderground v.1.15,2013-08-13 13:10:00,
2013-08-13 08:15:00,73.0,69.9,29.94,NE,35,1.0,2.0,90,0.00,,,0.00,Wunderground v.1.15,2013-08-13 13:15:00,
2013-08-13 08:20:00,73.2,70.1,29.94,East,81,2.0,2.0,90,0.00,,,0.00,Wunderground v.1.15,2013-08-13 13:20:00,
2013-08-13 08:25:00,73.2,70.1,29.95,East,81,1.0,2.0,90,0.00,,,0.00,Wunderground v.1.15,2013-08-13 13:25:00,
2013-08-13 08:26:00,73.2,70.1,29.95,East,83,3.0,3.0,90,0.00,,---,0.00,VWS V14.01,2013-08-13 13:26:00,
2013-08-13 08:30:00,73.2,70.1,29.95,East,81,1.0,1.0,90,0.00,,,0.00,Wunderground v.1.15,2013-08-13 13:30:00,
2013-08-13 08:31:00,73.2,70.1,29.95,East,81,1.0,1.0,90,0.00,,---,0.00,VWS V14.01,2013-08-13 13:31:00,
2013-08-13 08:35:00,73.3,70.2,29.95,East,81,1.0,1.0,90,0.00,,,0.00,Wunderground v.1.15,2013-08-13 13:35:00,
2013-08-13 08:36:00,73.5,70.4,29.95,East,81,0.0,2.0,90,0.00,,---,0.00,VWS V14.01,2013-08-13 13:36:00,
2013-08-13 08:40:00,73.5,70.4,29.95,NE,46,1.0,1.0,90,0.00,,,0.00,Wunderground v.1.15,2013-08-13 13:40:00,
2013-08-13 08:41:00,73.5,70.4,29.95,North,358,1.0,2.0,90,0.00,,---,0.00,VWS V14.01,2013-08-13 13:41:00,
2013-08-13 08:45:00,73.9,70.8,29.95,North,358,2.0,2.0,90,0.00,,,0.00,Wunderground v.1.15,2013-08-13 13:45:00,
2013-08-13 08:46:00,73.9,70.5,29.95,North,358,0.0,3.0,89,0.00,,---,0.00,VWS V14.01,2013-08-13 13:46:00,
2013-08-13 08:50:00,74.0,70.9,29.95,North,9,1.0,3.0,90,0.00,,,0.00,Wunderground v.1.15,2013-08-13 13:50:00,
2013-08-13 08:51:00,74.0,70.9,29.96,North,9,2.0,3.0,90,0.00,,---,0.00,VWS V14.01,2013-08-13 13:51:00,
2013-08-13 08:55:00,74.2,70.7,29.96,North,11,2.0,3.0,89,0.00,,,0.00,Wunderground v.1.15,2013-08-13 13:55:00,
2013-08-13 08:57:00,74.2,70.8,29.96,North,2,2.0,5.0,89,0.00,,---,0.00,VWS V14.01,2013-08-13 13:57:00,
2013-08-13 09:00:00,74.4,70.9,29.96,North,3,2.0,2.0,89,0.00,,,0.00,Wunderground v.1.15,2013-08-13 14:00:00,
2013-08-13 09:02:00,74.4,70.9,29.96,North,3,0.0,3.0,89,0.00,,---,0.00,VWS V14.01,2013-08-13 14:02:00,
2013-08-13 09:05:00,74.6,71.1,29.96,North,5,1.0,2.0,89,0.00,,,0.00,Wunderground v.1.15,2013-08-13 14:05:00,
2013-08-13 09:07:00,74.6,71.2,29.96,North,5,6.0,6.0,89,0.00,,---,0.00,VWS V14.01,2013-08-13 14:07:00,
2013-08-13 09:10:00,74.4,70.9,29.96,NNE,27,2.0,3.0,89,0.00,,,0.00,Wunderground v.1.15,2013-08-13 14:10:00,
2013-08-13 09:12:00,74.4,70.6,29.97,North,359,5.0,5.0,88,0.00,,---,0.00,VWS V14.01,2013-08-13 14:12:00,
2013-08-13 09:15:00,74.4,70.6,29.97,NNE,18,3.0,3.0,88,0.00,,,0.00,Wunderground v.1.15,2013-08-13 14:15:00,
2013-08-13 09:17:00,74.6,70.8,29.97,NNE,18,2.0,5.0,88,0.00,,---,0.00,VWS V14.01,2013-08-13 14:17:00,
2013-08-13 09:20:00,74.6,70.8,29.97,NNE,30,3.0,3.0,88,0.00,,,0.00,Wunderground v.1.15,2013-08-13 14:20:00,
2013-08-13 09:22:00,74.6,70.8,29.97,NNE,32,1.0,5.0,88,0.00,,---,0.00,VWS V14.01,2013-08-13 14:22:00,
2013-08-13 09:25:00,74.6,70.8,29.97,NNE,32,2.0,3.0,88,0.00,,,0.00,Wunderground v.1.15,2013-08-13 14:25:00,
2013-08-13 09:27:00,74.6,70.8,29.97,NNE,30,2.0,5.0,88,0.00,,---,0.00,VWS V14.01,2013-08-13 14:27:00,
2013-08-13 09:30:00,74.6,70.8,29.97,NE,49,2.0,5.0,88,0.00,,,0.00,Wunderground v.1.15,2013-08-13 14:30:00,
2013-08-13 09:33:00,74.6,70.8,29.97,NE,49,2.0,5.0,88,0.00,,---,0.00,VWS V14.01,2013-08-13 14:33:00,
2013-08-13 09:35:00,74.6,70.8,29.97,NE,47,2.0,5.0,88,0.00,,,0.00,Wunderground v.1.15,2013-08-13 14:35:00,
2013-08-13 09:38:00,74.7,70.9,29.97,East,101,6.0,6.0,88,0.00,,---,0.00,VWS V14.01,2013-08-13 14:38:00,
2013-08-13 09:40:00,74.7,71.2,29.97,East,101,2.0,3.0,89,0.00,,,0.00,Wunderground v.1.15,2013-08-13 14:40:00,
2013-08-13 09:43:00,74.9,71.4,29.97,East,85,1.0,3.0,89,0.00,,---,0.00,VWS V14.01,2013-08-13 14:43:00,
2013-08-13 09:45:00,74.9,71.4,29.97,East,84,2.0,3.0,89,0.00,,,0.00,Wunderground v.1.15,2013-08-13 14:45:00,
2013-08-13 09:48:00,74.9,71.1,29.97,NNE,15,1.0,6.0,88,0.00,,---,0.00,VWS V14.01,2013-08-13 14:48:00,
2013-08-13 09:50:00,74.9,71.1,29.97,NNE,33,2.0,2.0,88,0.00,,,0.00,Wunderground v.1.15,2013-08-13 14:50:00,
2013-08-13 09:53:00,75.1,71.3,29.97,NNE,33,0.0,3.0,88,0.00,,---,0.00,VWS V14.01,2013-08-13 14:53:00,
2013-08-13 09:55:00,75.1,71.6,29.97,NNE,33,2.0,2.0,89,0.00,,,0.00,Wunderground v.1.15,2013-08-13 14:55:00,
2013-08-13 09:58:00,75.3,71.8,29.97,ENE,68,5.0,5.0,89,0.00,,---,0.00,VWS V14.01,2013-08-13 14:58:00,
2013-08-13 10:00:00,75.3,71.8,29.97,ESE,104,2.0,2.0,89,0.00,,,0.00,Wunderground v.1.15,2013-08-13 15:00:00,
2013-08-13 10:04:00,75.3,71.8,29.97,East,90,2.0,3.0,89,0.00,,---,0.00,VWS V14.01,2013-08-13 15:04:00,
2013-08-13 10:05:00,75.4,71.9,29.97,East,84,2.0,6.0,89,0.00,,,0.00,Wunderground v.1.15,2013-08-13 15:05:00,
2013-08-13 10:09:00,75.4,71.6,29.97,ENE,68,5.0,7.0,88,0.00,,---,0.00,VWS V14.01,2013-08-13 15:09:00,
2013-08-13 10:10:00,75.4,71.6,29.97,East,81,3.0,5.0,88,0.00,,,0.00,Wunderground v.1.15,2013-08-13 15:10:00,
2013-08-13 10:14:00,75.4,71.6,29.97,NE,36,3.0,7.0,88,0.00,,---,0.00,VWS V14.01,2013-08-13 15:14:00,
2013-08-13 10:15:00,75.4,71.6,29.97,NE,50,4.0,5.0,88,0.00,,,0.00,Wunderground v.1.15,2013-08-13 15:15:00,
2013-08-13 10:19:00,75.6,71.8,29.97,ENE,60,3.0,7.0,88,0.00,,---,0.00,VWS V14.01,2013-08-13 15:19:00,
2013-08-13 10:20:00,75.6,71.8,29.97,NE,49,3.0,3.0,88,0.00,,,0.00,Wunderground v.1.15,2013-08-13 15:20:00,
2013-08-13 10:24:00,75.6,71.5,29.97,ENE,57,3.0,6.0,87,0.00,,---,0.00,VWS V14.01,2013-08-13 15:24:00,
2013-08-13 10:25:00,75.6,71.5,29.97,NE,47,3.0,5.0,87,0.00,,,0.00,Wunderground v.1.15,2013-08-13 15:25:00,
2013-08-13 10:29:00,75.8,71.7,29.97,ENE,73,5.0,6.0,87,0.00,,---,0.00,VWS V14.01,2013-08-13 15:29:00,
2013-08-13 10:30:00,75.8,71.7,29.97,ENE,73,4.0,4.0,87,0.00,,,0.00,Wunderground v.1.15,2013-08-13 15:30:00,
2013-08-13 10:35:00,76.1,71.9,29.97,NE,36,3.0,5.0,87,0.00,,,0.00,Wunderground v.1.15,2013-08-13 15:35:00,
2013-08-13 10:40:00,76.1,71.6,29.98,East,94,3.0,3.0,86,0.00,,,0.00,Wunderground v.1.15,2013-08-13 15:40:00,
2013-08-13 10:45:00,76.3,71.8,29.98,NE,35,4.0,7.0,86,0.00,,,0.00,Wunderground v.1.15,2013-08-13 15:45:00,
2013-08-13 10:50:00,76.5,72.0,29.99,North,354,4.0,4.0,86,0.00,,,0.00,Wunderground v.1.15,2013-08-13 15:50:00,
2013-08-13 10:55:00,76.5,72.0,29.99,NNE,23,4.0,6.0,86,0.00,,,0.00,Wunderground v.1.15,2013-08-13 15:55:00,
2013-08-13 11:00:00,76.7,71.8,29.99,North,8,5.0,6.0,85,0.00,,,0.00,Wunderground v.1.15,2013-08-13 16:00:00,
2013-08-13 11:05:00,76.7,71.8,29.99,NNE,29,6.0,10.0,85,0.00,,,0.00,Wunderground v.1.15,2013-08-13 16:05:00,
2013-08-13 11:06:00,76.7,71.9,29.99,North,1,2.0,10.0,85,0.00,,---,0.00,VWS V14.01,2013-08-13 16:06:00,
2013-08-13 11:10:00,76.5,71.7,29.99,NNE,18,6.0,7.0,85,0.00,,,0.00,Wunderground v.1.15,2013-08-13 16:10:00,
2013-08-13 11:11:00,76.5,71.7,29.99,NNE,18,7.0,8.0,85,0.00,,---,0.00,VWS V14.01,2013-08-13 16:11:00,
2013-08-13 11:15:00,76.7,71.8,29.99,ENE,66,6.0,7.0,85,0.00,,,0.00,Wunderground v.1.15,2013-08-13 16:15:00,
2013-08-13 11:16:00,76.7,71.9,29.99,ENE,57,7.0,8.0,85,0.00,,---,0.00,VWS V14.01,2013-08-13 16:16:00,
2013-08-13 11:20:00,76.7,71.8,29.99,NNE,22,6.0,6.0,85,0.00,,,0.00,Wunderground v.1.15,2013-08-13 16:20:00,
2013-08-13 11:21:00,77.2,72.3,29.99,NNE,27,6.0,6.0,85,0.00,,---,0.00,VWS V14.01,2013-08-13 16:21:00,
2013-08-13 11:25:00,77.7,72.5,29.99,North,8,6.0,6.0,84,0.00,,,0.00,Wunderground v.1.15,2013-08-13 16:25:00,
2013-08-13 11:26:00,78.1,72.9,29.99,ENE,59,11.0,11.0,84,0.00,,---,0.00,VWS V14.01,2013-08-13 16:26:00,
2013-08-13 11:30:00,78.5,73.3,29.99,North,5,6.0,6.0,84,0.00,,,0.00,Wunderground v.1.15,2013-08-13 16:30:00,
2013-08-13 11:31:00,78.6,73.4,29.99,North,1,6.0,8.0,84,0.00,,---,0.00,VWS V14.01,2013-08-13 16:31:00,
2013-08-13 11:35:00,78.6,72.6,29.99,NNE,25,6.0,8.0,82,0.00,,,0.00,Wunderground v.1.15,2013-08-13 16:35:00,
2013-08-13 11:37:00,78.8,73.6,29.99,NE,39,3.0,8.0,84,0.00,,---,0.00,VWS V14.01,2013-08-13 16:37:00,
2013-08-13 11:40:00,79.2,73.9,29.99,ENE,68,6.0,7.0,84,0.00,,,0.00,Wunderground v.1.15,2013-08-13 16:40:00,
2013-08-13 11:43:00,79.0,72.3,29.99,NNE,26,5.0,10.0,80,0.00,,---,0.00,VWS V14.01,2013-08-13 16:43:00,
2013-08-13 11:45:00,79.0,73.0,29.98,NE,36,6.0,7.0,82,0.00,,,0.00,Wunderground v.1.15,2013-08-13 16:45:00,
2013-08-13 11:48:00,79.6,73.6,29.98,ENE,63,8.0,10.0,82,0.00,,---,0.00,VWS V14.01,2013-08-13 16:48:00,
2013-08-13 11:50:00,79.6,72.9,29.98,North,11,6.0,6.0,80,0.00,,,0.00,Wunderground v.1.15,2013-08-13 16:50:00,
2013-08-13 11:53:00,79.6,72.9,29.98,NE,37,5.0,8.0,80,0.00,,---,0.00,VWS V14.01,2013-08-13 16:53:00,
2013-08-13 11:55:00,79.8,73.1,29.98,North,8,6.0,10.0,80,0.00,,,0.00,Wunderground v.1.15,2013-08-13 16:55:00,
2013-08-13 11:58:00,79.6,72.9,29.98,NNE,33,3.0,11.0,80,0.00,,---,0.00,VWS V14.01,2013-08-13 16:58:00,
2013-08-13 12:00:00,79.6,72.9,29.98,North,358,6.0,8.0,80,0.00,,,0.00,Wunderground v.1.15,2013-08-13 17:00:00,
2013-08-13 12:03:00,79.9,73.2,29.98,NE,43,5.0,11.0,80,0.00,,---,0.00,VWS V14.01,2013-08-13 17:03:00,
2013-08-13 12:05:00,80.1,73.7,29.98,NNE,15,7.0,8.0,81,0.00,,,0.00,Wunderground v.1.15,2013-08-13 17:05:00,
2013-08-13 12:08:00,80.1,73.8,29.98,NE,36,5.0,11.0,81,0.00,,---,0.00,VWS V14.01,2013-08-13 17:08:00,
2013-08-13 12:14:00,80.7,73.2,29.98,NE,46,5.0,8.0,78,0.00,,---,0.00,VWS V14.01,2013-08-13 17:14:00,
2013-08-13 12:15:00,80.7,73.2,29.98,ENE,67,6.0,7.0,78,0.00,,,0.00,Wunderground v.1.15,2013-08-13 17:15:00,
2013-08-13 12:19:00,81.1,73.2,29.98,ENE,61,11.0,11.0,77,0.00,,---,0.00,VWS V14.01,2013-08-13 17:19:00,
2013-08-13 12:20:00,80.9,73.0,29.98,NE,56,6.0,6.0,77,0.00,,,0.00,Wunderground v.1.15,2013-08-13 17:20:00,
2013-08-13 12:24:00,81.1,73.2,29.98,North,352,7.0,8.0,77,0.00,,---,0.00,VWS V14.01,2013-08-13 17:24:00,
2013-08-13 12:25:00,81.2,72.9,29.97,NNE,13,6.0,6.0,76,0.00,,,0.00,Wunderground v.1.15,2013-08-13 17:25:00,
2013-08-13 12:30:00,81.4,73.1,29.97,ENE,64,3.0,3.0,76,0.00,,---,0.00,VWS V14.01,2013-08-13 17:30:00,
2013-08-13 12:35:00,82.0,72.5,29.97,NNE,23,4.0,6.0,73,0.00,,,0.00,Wunderground v.1.15,2013-08-13 17:35:00,
2013-08-13 12:40:00,81.8,71.9,29.97,North,6,2.0,3.0,72,0.00,,---,0.00,VWS V14.01,2013-08-13 17:40:00,
2013-08-13 12:45:00,82.2,73.1,29.97,North,356,5.0,7.0,74,0.00,,---,0.00,VWS V14.01,2013-08-13 17:45:00,
2013-08-13 12:50:00,82.6,73.5,29.96,NE,35,8.0,8.0,74,0.00,,---,0.00,VWS V14.01,2013-08-13 17:50:00,
2013-08-13 12:55:00,82.4,73.3,29.96,NNE,23,6.0,8.0,74,0.00,,,0.00,Wunderground v.1.15,2013-08-13 17:55:00,
2013-08-13 13:00:00,82.4,73.3,29.96,NNE,16,5.0,6.0,74,0.00,,,0.00,Wunderground v.1.15,2013-08-13 18:00:00,
2013-08-13 13:01:00,82.4,73.3,29.96,NNE,16,6.0,6.0,74,0.00,,---,0.00,VWS V14.01,2013-08-13 18:01:00,
2013-08-13 13:05:00,81.8,72.3,29.96,NE,56,5.0,6.0,73,0.00,,,0.00,Wunderground v.1.15,2013-08-13 18:05:00,
2013-08-13 13:06:00,81.8,72.7,29.95,ENE,63,3.0,8.0,74,0.00,,---,0.00,VWS V14.01,2013-08-13 18:06:00,
2013-08-13 13:10:00,82.2,73.1,29.95,NE,54,6.0,6.0,74,0.00,,,0.00,Wunderground v.1.15,2013-08-13 18:10:00,
2013-08-13 13:11:00,82.0,72.9,29.95,NNE,23,5.0,5.0,74,0.00,,---,0.00,VWS V14.01,2013-08-13 18:11:00,
2013-08-13 13:15:00,82.0,72.9,29.95,North,9,5.0,6.0,74,0.00,,,0.00,Wunderground v.1.15,2013-08-13 18:15:00,
2013-08-13 13:16:00,82.2,73.1,29.95,ENE,64,6.0,10.0,74,0.00,,---,0.00,VWS V14.01,2013-08-13 18:16:00,
2013-08-13 13:20:00,82.2,71.9,29.94,NE,39,5.0,5.0,71,0.00,,,0.00,Wunderground v.1.15,2013-08-13 18:20:00,
2013-08-13 13:21:00,82.2,71.9,29.94,NNE,30,2.0,3.0,71,0.00,,---,0.00,VWS V14.01,2013-08-13 18:21:00,
2013-08-13 13:25:00,82.8,72.4,29.94,NNE,23,6.0,6.0,71,0.00,,,0.00,Wunderground v.1.15,2013-08-13 18:25:00,
2013-08-13 13:26:00,82.8,72.4,29.94,NE,40,7.0,10.0,71,0.00,,---,0.00,VWS V14.01,2013-08-13 18:26:00,
2013-08-13 13:30:00,82.6,72.2,29.93,NE,49,7.0,7.0,71,0.00,,,0.00,Wunderground v.1.15,2013-08-13 18:30:00,
2013-08-13 13:31:00,82.4,72.5,29.93,NE,53,5.0,7.0,72,0.00,,---,0.00,VWS V14.01,2013-08-13 18:31:00,
2013-08-13 13:35:00,82.4,72.9,29.93,NE,42,6.0,7.0,73,0.00,,,0.00,Wunderground v.1.15,2013-08-13 18:35:00,
2013-08-13 13:36:00,82.8,73.3,29.93,NE,46,6.0,10.0,73,0.00,,---,0.00,VWS V14.01,2013-08-13 18:36:00,
2013-08-13 13:40:00,83.2,73.6,29.93,NNE,25,5.0,6.0,73,0.00,,,0.00,Wunderground v.1.15,2013-08-13 18:40:00,
2013-08-13 13:42:00,83.2,73.2,29.93,North,3,10.0,10.0,72,0.00,,---,0.00,VWS V14.01,2013-08-13 18:42:00,
2013-08-13 13:45:00,82.6,72.7,29.93,ENE,68,6.0,7.0,72,0.00,,,0.00,Wunderground v.1.15,2013-08-13 18:45:00,
2013-08-13 13:47:00,82.2,72.3,29.93,NE,44,7.0,10.0,72,0.00,,---,0.00,VWS V14.01,2013-08-13 18:47:00,
2013-08-13 13:50:00,82.0,72.1,29.93,NE,43,6.0,6.0,72,0.00,,,0.00,Wunderground v.1.15,2013-08-13 18:50:00,
2013-08-13 13:52:00,82.0,72.1,29.92,NNE,32,3.0,5.0,72,0.00,,---,0.00,VWS V14.01,2013-08-13 18:52:00,
2013-08-13 13:55:00,82.0,72.1,29.92,North,354,5.0,6.0,72,0.00,,,0.00,Wunderground v.1.15,2013-08-13 18:55:00,
2013-08-13 13:57:00,82.4,72.9,29.92,NNE,33,7.0,10.0,73,0.00,,---,0.00,VWS V14.01,2013-08-13 18:57:00,
2013-08-13 14:00:00,82.4,72.9,29.92,NNE,22,5.0,5.0,73,0.00,,,0.00,Wunderground v.1.15,2013-08-13 19:00:00,
2013-08-13 14:02:00,82.8,73.3,29.92,North,11,7.0,7.0,73,0.00,,---,0.00,VWS V14.01,2013-08-13 19:02:00,
2013-08-13 14:05:00,83.6,74.0,29.92,North,1,5.0,5.0,73,0.00,,,0.00,Wunderground v.1.15,2013-08-13 19:05:00,
2013-08-13 14:08:00,83.6,74.0,29.92,NNE,19,8.0,8.0,73,0.00,,---,0.00,VWS V14.01,2013-08-13 19:08:00,
2013-08-13 14:10:00,83.6,73.6,29.92,ENE,66,5.0,5.0,72,0.00,,,0.00,Wunderground v.1.15,2013-08-13 19:10:00,
2013-08-13 14:13:00,83.4,73.4,29.92,NE,50,3.0,7.0,72,0.00,,---,0.00,VWS V14.01,2013-08-13 19:13:00,
2013-08-13 14:15:00,83.4,73.4,29.92,NE,54,5.0,5.0,72,0.00,,,0.00,Wunderground v.1.15,2013-08-13 19:15:00,
2013-08-13 14:18:00,83.2,73.2,29.92,NNE,22,8.0,8.0,72,0.00,,---,0.00,VWS V14.01,2013-08-13 19:18:00,
2013-08-13 14:20:00,83.2,71.5,29.92,NNW,345,4.0,4.0,68,0.00,,,0.00,Wunderground v.1.15,2013-08-13 19:20:00,
2013-08-13 14:23:00,83.2,71.6,29.92,North,352,2.0,5.0,68,0.00,,---,0.00,VWS V14.01,2013-08-13 19:23:00,
2013-08-13 14:25:00,83.8,72.1,29.92,North,11,4.0,4.0,68,0.00,,,0.00,Wunderground v.1.15,2013-08-13 19:25:00,
2013-08-13 14:28:00,84.1,72.4,29.92,East,97,5.0,7.0,68,0.00,,---,0.00,VWS V14.01,2013-08-13 19:28:00,
2013-08-13 14:30:00,84.1,73.3,29.92,North,11,4.0,8.0,70,0.00,,,0.00,Wunderground v.1.15,2013-08-13 19:30:00,
2013-08-13 14:33:00,84.1,73.3,29.92,North,349,3.0,8.0,70,0.00,,---,0.00,VWS V14.01,2013-08-13 19:33:00,
2013-08-13 14:35:00,84.5,73.6,29.91,ESE,108,4.0,8.0,70,0.00,,,0.00,Wunderground v.1.15,2013-08-13 19:35:00,
2013-08-13 14:38:00,84.9,74.0,29.91,NNE,22,8.0,8.0,70,0.00,,---,0.00,VWS V14.01,2013-08-13 19:38:00,
2013-08-13 14:40:00,84.9,74.0,29.91,NNE,30,4.0,4.0,70,0.00,,,0.00,Wunderground v.1.15,2013-08-13 19:40:00,
2013-08-13 14:43:00,84.7,72.5,29.91,NNE,33,5.0,8.0,67,0.00,,---,0.00,VWS V14.01,2013-08-13 19:43:00,
2013-08-13 14:45:00,84.1,72.8,29.91,ENE,59,4.0,5.0,69,0.00,,,0.00,Wunderground v.1.15,2013-08-13 19:45:00,
2013-08-13 14:48:00,83.8,71.7,29.91,South,186,2.0,8.0,67,0.00,,---,0.00,VWS V14.01,2013-08-13 19:48:00,
2013-08-13 14:50:00,83.8,71.7,29.91,South,186,3.0,3.0,67,0.00,,,0.00,Wunderground v.1.15,2013-08-13 19:50:00,
2013-08-13 14:53:00,83.8,71.7,29.91,North,6,2.0,5.0,67,0.00,,---,0.00,VWS V14.01,2013-08-13 19:53:00,
2013-08-13 14:55:00,84.1,73.3,29.91,NNE,13,2.0,8.0,70,0.00,,,0.00,Wunderground v.1.15,2013-08-13 19:55:00,
2013-08-13 14:58:00,84.3,72.6,29.91,NE,47,3.0,10.0,68,0.00,,---,0.00,VWS V14.01,2013-08-13 19:58:00,
2013-08-13 15:00:00,84.3,72.6,29.91,North,352,3.0,3.0,68,0.00,,,0.00,Wunderground v.1.15,2013-08-13 20:00:00,
2013-08-13 15:04:00,84.7,73.0,29.90,ENE,61,5.0,5.0,68,0.00,,---,0.00,VWS V14.01,2013-08-13 20:04:00,
2013-08-13 15:05:00,84.7,73.0,29.90,East,85,4.0,6.0,68,0.00,,,0.00,Wunderground v.1.15,2013-08-13 20:05:00,
2013-08-13 15:09:00,84.9,73.2,29.90,ENE,63,3.0,7.0,68,0.00,,---,0.00,VWS V14.01,2013-08-13 20:09:00,
2013-08-13 15:10:00,84.9,73.2,29.90,ENE,63,3.0,3.0,68,0.00,,,0.00,Wunderground v.1.15,2013-08-13 20:10:00,
2013-08-13 15:14:00,85.1,73.4,29.90,ENE,59,1.0,6.0,68,0.00,,---,0.00,VWS V14.01,2013-08-13 20:14:00,
2013-08-13 15:15:00,85.1,73.3,29.90,SE,138,3.0,3.0,68,0.00,,,0.00,Wunderground v.1.15,2013-08-13 20:15:00,
2013-08-13 15:19:00,85.5,73.7,29.89,ENE,60,3.0,6.0,68,0.00,,---,0.00,VWS V14.01,2013-08-13 20:19:00,
2013-08-13 15:20:00,85.5,73.7,29.89,ENE,57,3.0,3.0,68,0.00,,,0.00,Wunderground v.1.15,2013-08-13 20:20:00,
2013-08-13 15:24:00,85.1,72.5,29.89,East,90,3.0,6.0,66,0.00,,---,0.00,VWS V14.01,2013-08-13 20:24:00,
2013-08-13 15:25:00,85.1,72.5,29.89,East,90,3.0,5.0,66,0.00,,,0.00,Wunderground v.1.15,2013-08-13 20:25:00,
2013-08-13 15:29:00,84.9,71.8,29.88,SSE,163,2.0,7.0,65,0.00,,---,0.00,VWS V14.01,2013-08-13 20:29:00,
2013-08-13 15:30:00,85.1,72.9,29.88,SSE,163,3.0,3.0,67,0.00,,,0.00,Wunderground v.1.15,2013-08-13 20:30:00,
2013-08-13 15:34:00,85.9,73.7,29.88,SSE,149,2.0,5.0,67,0.00,,---,0.00,VWS V14.01,2013-08-13 20:34:00,
2013-08-13 15:35:00,86.1,73.9,29.88,SSE,147,3.0,3.0,67,0.00,,,0.00,Wunderground v.1.15,2013-08-13 20:35:00,
2013-08-13 15:39:00,86.3,74.1,29.88,ENE,71,3.0,5.0,67,0.00,,---,0.00,VWS V14.01,2013-08-13 20:39:00,
2013-08-13 15:40:00,86.3,73.6,29.88,ENE,71,2.0,2.0,66,0.00,,,0.00,Wunderground v.1.15,2013-08-13 20:40:00,
2013-08-13 15:45:00,86.5,74.2,29.87,ENE,63,3.0,6.0,67,0.00,,---,0.00,VWS V14.01,2013-08-13 20:45:00,
2013-08-13 15:50:00,86.7,74.4,29.87,ENE,59,2.0,6.0,67,0.00,,---,0.00,VWS V14.01,2013-08-13 20:50:00,
2013-08-13 15:55:00,86.7,74.4,29.87,ENE,78,1.0,5.0,67,0.00,,---,0.00,VWS V14.01,2013-08-13 20:55:00,
2013-08-13 16:00:00,87.0,73.8,29.87,NNE,25,5.0,5.0,65,0.00,,---,0.00,VWS V14.01,2013-08-13 21:00:00,
2013-08-13 16:05:00,86.5,72.9,29.87,NNE,18,3.0,5.0,64,0.00,,,0.00,Wunderground v.1.15,2013-08-13 21:05:00,
2013-08-13 16:10:00,86.7,73.5,29.87,East,84,2.0,3.0,65,0.00,,---,0.00,VWS V14.01,2013-08-13 21:10:00,
2013-08-13 16:15:00,86.5,72.4,29.88,ENE,78,3.0,3.0,63,0.00,,,0.00,Wunderground v.1.15,2013-08-13 21:15:00,
2013-08-13 16:20:00,86.1,73.4,29.88,ENE,77,2.0,2.0,66,0.00,,,0.00,Wunderground v.1.15,2013-08-13 21:20:00,
2013-08-13 16:25:00,86.3,73.6,29.88,NNE,30,2.0,5.0,66,0.00,,,0.00,Wunderground v.1.15,2013-08-13 21:25:00,
2013-08-13 16:30:00,85.7,72.6,29.88,North,3,3.0,5.0,65,0.00,,,0.00,Wunderground v.1.15,2013-08-13 21:30:00,
2013-08-13 16:35:00,85.5,72.4,29.88,North,11,3.0,5.0,65,0.00,,,0.00,Wunderground v.1.15,2013-08-13 21:35:00,
2013-08-13 16:40:00,85.1,73.3,29.88,North,2,2.0,3.0,68,0.00,,,0.00,Wunderground v.1.15,2013-08-13 21:40:00,
2013-08-13 16:41:00,85.1,73.4,29.88,North,2,3.0,3.0,68,0.00,,---,0.00,VWS V14.01,2013-08-13 21:41:00,
2013-08-13 16:45:00,85.1,73.3,29.88,North,2,1.0,3.0,68,0.00,,,0.00,Wunderground v.1.15,2013-08-13 21:45:00,
2013-08-13 16:46:00,85.3,73.6,29.88,North,2,1.0,3.0,68,0.00,,---,0.00,VWS V14.01,2013-08-13 21:46:00,
2013-08-13 16:50:00,85.3,73.5,29.88,North,2,2.0,2.0,68,0.00,,,0.00,Wunderground v.1.15,2013-08-13 21:50:00,
2013-08-13 16:51:00,85.3,73.6,29.88,North,3,2.0,3.0,68,0.00,,---,0.00,VWS V14.01,2013-08-13 21:51:00,
2013-08-13 16:55:00,85.3,73.5,29.88,North,6,2.0,2.0,68,0.00,,,0.00,Wunderground v.1.15,2013-08-13 21:55:00,
2013-08-13 16:56:00,85.1,72.9,29.88,North,6,1.0,3.0,67,0.00,,---,0.00,VWS V14.01,2013-08-13 21:56:00,
2013-08-13 17:00:00,85.1,72.5,29.88,NNE,27,2.0,2.0,66,0.00,,,0.00,Wunderground v.1.15,2013-08-13 22:00:00,
2013-08-13 17:01:00,85.1,73.4,29.88,NNE,27,2.0,2.0,68,0.00,,---,0.00,VWS V14.01,2013-08-13 22:01:00,
2013-08-13 17:06:00,85.1,72.9,29.88,NNE,27,2.0,3.0,67,0.00,,---,0.00,VWS V14.01,2013-08-13 22:06:00,
2013-08-13 17:10:00,85.1,72.9,29.88,NE,37,2.0,3.0,67,0.00,,,0.00,Wunderground v.1.15,2013-08-13 22:10:00,
2013-08-13 17:11:00,85.1,72.5,29.88,NE,37,3.0,5.0,66,0.00,,---,0.00,VWS V14.01,2013-08-13 22:11:00,
2013-08-13 17:15:00,85.5,72.8,29.88,NNE,32,3.0,3.0,66,0.00,,,0.00,Wunderground v.1.15,2013-08-13 22:15:00,
2013-08-13 17:16:00,85.5,72.8,29.88,NNE,32,5.0,6.0,66,0.00,,---,0.00,VWS V14.01,2013-08-13 22:16:00,
2013-08-13 17:20:00,85.9,74.1,29.87,North,356,3.0,3.0,68,0.00,,,0.00,Wunderground v.1.15,2013-08-13 22:20:00,
2013-08-13 17:21:00,85.9,74.1,29.87,North,6,5.0,7.0,68,0.00,,---,0.00,VWS V14.01,2013-08-13 22:21:00,
2013-08-13 17:25:00,86.1,73.0,29.87,NNE,26,3.0,3.0,65,0.00,,,0.00,Wunderground v.1.15,2013-08-13 22:25:00,
2013-08-13 17:26:00,86.1,73.0,29.87,NNE,29,3.0,7.0,65,0.00,,---,0.00,VWS V14.01,2013-08-13 22:26:00,
2013-08-13 17:30:00,85.9,72.3,29.87,NE,43,3.0,3.0,64,0.00,,,0.00,Wunderground v.1.15,2013-08-13 22:30:00,
2013-08-13 17:32:00,85.9,72.8,29.87,NE,43,1.0,2.0,65,0.00,,---,0.00,VWS V14.01,2013-08-13 22:32:00,
2013-08-13 17:35:00,85.9,73.2,29.87,ENE,77,2.0,3.0,66,0.00,,,0.00,Wunderground v.1.15,2013-08-13 22:35:00,
2013-08-13 17:37:00,86.1,73.4,29.87,ENE,71,2.0,6.0,66,0.00,,---,0.00,VWS V14.01,2013-08-13 22:37:00,
2013-08-13 17:42:00,86.1,73.4,29.87,ENE,71,2.0,3.0,66,0.00,,---,0.00,VWS V14.01,2013-08-13 22:42:00,
2013-08-13 17:45:00,86.1,73.0,29.87,North,11,2.0,2.0,65,0.00,,,0.00,Wunderground v.1.15,2013-08-13 22:45:00,
2013-08-13 17:48:00,86.1,73.0,29.86,North,8,5.0,5.0,65,0.00,,---,0.00,VWS V14.01,2013-08-13 22:48:00,
2013-08-13 17:50:00,86.1,73.0,29.86,North,8,2.0,5.0,65,0.00,,,0.00,Wunderground v.1.15,2013-08-13 22:50:00,
2013-08-13 17:53:00,86.1,73.0,29.86,North,8,1.0,5.0,65,0.00,,---,0.00,VWS V14.01,2013-08-13 22:53:00,
2013-08-13 17:55:00,86.1,72.5,29.86,North,8,1.0,5.0,64,0.00,,,0.00,Wunderground v.1.15,2013-08-13 22:55:00,
2013-08-13 17:58:00,86.1,73.4,29.87,North,8,1.0,5.0,66,0.00,,---,0.00,VWS V14.01,2013-08-13 22:58:00,
2013-08-13 18:03:00,85.9,73.2,29.87,North,8,1.0,2.0,66,0.00,,---,0.00,VWS V14.01,2013-08-13 23:03:00,
2013-08-13 18:05:00,85.3,72.6,29.86,North,8,1.0,2.0,66,0.00,,,0.00,Wunderground v.1.15,2013-08-13 23:05:00,
2013-08-13 18:08:00,85.3,72.7,29.87,North,8,0.0,2.0,66,0.00,,---,0.00,VWS V14.01,2013-08-13 23:08:00,
2013-08-13 18:10:00,85.3,73.5,29.87,North,8,0.0,0.0,68,0.00,,,0.00,Wunderground v.1.15,2013-08-13 23:10:00,
2013-08-13 18:13:00,85.3,73.6,29.87,North,8,0.0,0.0,68,0.00,,---,0.00,VWS V14.01,2013-08-13 23:13:00,
2013-08-13 18:15:00,85.3,74.4,29.87,North,8,0.0,2.0,70,0.00,,,0.00,Wunderground v.1.15,2013-08-13 23:15:00,
2013-08-13 18:18:00,85.3,74.8,29.87,North,8,2.0,3.0,71,0.00,,---,0.00,VWS V14.01,2013-08-13 23:18:00,
2013-08-13 18:20:00,85.3,74.8,29.87,North,8,1.0,1.0,71,0.00,,,0.00,Wunderground v.1.15,2013-08-13 23:20:00,
2013-08-13 18:23:00,85.3,74.8,29.87,North,8,1.0,2.0,71,0.00,,---,0.00,VWS V14.01,2013-08-13 23:23:00,
2013-08-13 18:25:00,85.3,74.8,29.87,NNE,23,2.0,3.0,71,0.00,,,0.00,Wunderground v.1.15,2013-08-13 23:25:00,
2013-08-13 18:28:00,85.1,73.8,29.87,North,6,6.0,6.0,69,0.00,,---,0.00,VWS V14.01,2013-08-13 23:28:00,
2013-08-13 18:30:00,84.9,73.2,29.87,NNE,23,2.0,3.0,68,0.00,,,0.00,Wunderground v.1.15,2013-08-13 23:30:00,
2013-08-13 18:33:00,84.7,73.8,29.86,NNE,29,6.0,6.0,70,0.00,,---,0.00,VWS V14.01,2013-08-13 23:33:00,
2013-08-13 18:38:00,84.7,73.4,29.86,NNE,18,0.0,6.0,69,0.00,,---,0.00,VWS V14.01,2013-08-13 23:38:00,
2013-08-13 18:40:00,84.7,73.4,29.86,NNE,18,2.0,2.0,69,0.00,,,0.00,Wunderground v.1.15,2013-08-13 23:40:00,
2013-08-13 18:44:00,84.7,73.4,29.86,NNE,18,2.0,2.0,69,0.00,,---,0.00,VWS V14.01,2013-08-13 23:44:00,
2013-08-13 18:45:00,84.7,73.4,29.86,NNE,19,1.0,2.0,69,0.00,,,0.00,Wunderground v.1.15,2013-08-13 23:45:00,
2013-08-13 18:49:00,84.7,73.4,29.86,NNE,19,0.0,3.0,69,0.00,,---,0.00,VWS V14.01,2013-08-13 23:49:00,
2013-08-13 18:50:00,84.7,73.4,29.86,NNE,19,1.0,1.0,69,0.00,,,0.00,Wunderground v.1.15,2013-08-13 23:50:00,
2013-08-13 18:54:00,84.7,73.8,29.86,NNE,19,0.0,1.0,70,0.00,,---,0.00,VWS V14.01,2013-08-13 23:54:00,
2013-08-13 18:55:00,84.7,73.8,29.86,NNE,19,1.0,1.0,70,0.00,,,0.00,Wunderground v.1.15,2013-08-13 23:55:00,
2013-08-13 18:59:00,84.5,73.7,29.86,NNE,19,2.0,3.0,70,0.00,,---,0.00,VWS V14.01,2013-08-13 23:59:00,
2013-08-13 19:00:00,84.5,73.6,29.86,NNE,19,1.0,2.0,70,0.00,,,0.00,Wunderground v.1.15,2013-08-14 00:00:00,
2013-08-13 19:04:00,84.3,73.5,29.86,NNE,19,2.0,2.0,70,0.00,,---,0.00,VWS V14.01,2013-08-14 00:04:00,
2013-08-13 19:05:00,84.3,73.4,29.86,NNE,19,2.0,2.0,70,0.00,,,0.00,Wunderground v.1.15,2013-08-14 00:05:00,
2013-08-13 19:09:00,84.0,73.2,29.86,NNE,19,1.0,2.0,70,0.00,,---,0.00,VWS V14.01,2013-08-14 00:09:00,
2013-08-13 19:10:00,84.0,73.2,29.86,NNE,19,1.0,1.0,70,0.00,,,0.00,Wunderground v.1.15,2013-08-14 00:10:00,
2013-08-13 19:14:00,83.8,74.2,29.86,NNE,19,0.0,1.0,73,0.00,,---,0.00,VWS V14.01,2013-08-14 00:14:00,
2013-08-13 19:15:00,83.8,74.2,29.86,NNE,19,1.0,1.0,73,0.00,,,0.00,Wunderground v.1.15,2013-08-14 00:15:00,
2013-08-13 19:19:00,83.6,74.8,29.86,NNE,19,0.0,1.0,75,0.00,,---,0.00,VWS V14.01,2013-08-14 00:19:00,
2013-08-13 19:20:00,83.6,74.8,29.86,NNE,19,0.0,0.0,75,0.00,,,0.00,Wunderground v.1.15,2013-08-14 00:20:00,
2013-08-13 19:24:00,83.4,74.7,29.87,NNE,19,0.0,0.0,75,0.00,,---,0.00,VWS V14.01,2013-08-14 00:24:00,
2013-08-13 19:25:00,83.4,74.6,29.87,NNE,19,0.0,0.0,75,0.00,,,0.00,Wunderground v.1.15,2013-08-14 00:25:00,
2013-08-13 19:29:00,83.6,74.8,29.87,NNE,19,0.0,0.0,75,0.00,,---,0.00,VWS V14.01,2013-08-14 00:29:00,
2013-08-13 19:30:00,83.6,74.8,29.87,NNE,19,0.0,0.0,75,0.00,,,0.00,Wunderground v.1.15,2013-08-14 00:30:00,
2013-08-13 19:35:00,83.4,74.7,29.87,NNE,19,0.0,0.0,75,0.00,,---,0.00,VWS V14.01,2013-08-14 00:35:00,
2013-08-13 19:40:00,83.4,76.2,29.87,NNE,19,0.0,0.0,79,0.00,,,0.00,Wunderground v.1.15,2013-08-14 00:40:00,
2013-08-13 19:45:00,83.2,76.4,29.87,NNE,19,0.0,0.0,80,0.00,,,0.00,Wunderground v.1.15,2013-08-14 00:45:00,
2013-08-13 19:50:00,82.8,76.4,29.87,NNE,19,0.0,0.0,81,0.00,,,0.00,Wunderground v.1.15,2013-08-14 00:50:00,
2013-08-13 19:55:00,82.4,76.0,29.87,NNE,19,0.0,0.0,81,0.00,,,0.00,Wunderground v.1.15,2013-08-14 00:55:00,
2013-08-13 19:56:00,82.4,76.0,29.88,NNE,19,0.0,0.0,81,0.00,,---,0.00,VWS V14.01,2013-08-14 00:56:00,
2013-08-13 20:00:00,82.2,76.2,29.88,NNE,19,0.0,0.0,82,0.00,,,0.00,Wunderground v.1.15,2013-08-14 01:00:00,
2013-08-13 20:01:00,82.2,76.2,29.88,NNE,19,0.0,0.0,82,0.00,,---,0.00,VWS V14.01,2013-08-14 01:01:00,
2013-08-13 20:05:00,82.0,76.0,29.88,NNE,19,0.0,0.0,82,0.00,,,0.00,Wunderground v.1.15,2013-08-14 01:05:00,
2013-08-13 20:06:00,82.0,76.0,29.88,NNE,19,0.0,0.0,82,0.00,,---,0.00,VWS V14.01,2013-08-14 01:06:00,
2013-08-13 20:10:00,81.8,76.1,29.88,NNE,19,0.0,1.0,83,0.00,,,0.00,Wunderground v.1.15,2013-08-14 01:10:00,
2013-08-13 20:11:00,81.6,75.9,29.89,NNE,19,1.0,1.0,83,0.00,,---,0.00,VWS V14.01,2013-08-14 01:11:00,
2013-08-13 20:15:00,81.2,75.9,29.89,NNE,19,0.0,1.0,84,0.00,,,0.00,Wunderground v.1.15,2013-08-14 01:15:00,
2013-08-13 20:16:00,81.1,75.8,29.89,NNE,19,0.0,1.0,84,0.00,,---,0.00,VWS V14.01,2013-08-14 01:16:00,
2013-08-13 20:20:00,80.9,76.0,29.89,NNE,19,0.0,0.0,85,0.00,,,0.00,Wunderground v.1.15,2013-08-14 01:20:00,
2013-08-13 20:22:00,80.9,76.0,29.89,NNE,19,0.0,0.0,85,0.00,,---,0.00,VWS V14.01,2013-08-14 01:22:00,
2013-08-13 20:25:00,80.7,75.8,29.89,NNE,19,0.0,0.0,85,0.00,,,0.00,Wunderground v.1.15,2013-08-14 01:25:00,
2013-08-13 20:27:00,80.7,75.8,29.89,NNE,19,0.0,0.0,85,0.00,,---,0.00,VWS V14.01,2013-08-14 01:27:00,
2013-08-13 20:30:00,80.5,75.9,29.89,NNE,19,0.0,0.0,86,0.00,,,0.00,Wunderground v.1.15,2013-08-14 01:30:00,
2013-08-13 20:32:00,80.5,75.9,29.89,NNE,19,0.0,0.0,86,0.00,,---,0.00,VWS V14.01,2013-08-14 01:32:00,
2013-08-13 20:35:00,80.3,75.7,29.89,NNE,19,0.0,0.0,86,0.00,,,0.00,Wunderground v.1.15,2013-08-14 01:35:00,
2013-08-13 20:37:00,80.3,75.7,29.89,NNE,19,0.0,0.0,86,0.00,,---,0.00,VWS V14.01,2013-08-14 01:37:00,
2013-08-13 20:42:00,80.1,75.5,29.90,NNE,19,0.0,0.0,86,0.00,,---,0.00,VWS V14.01,2013-08-14 01:42:00,
2013-08-13 20:45:00,80.1,75.5,29.90,NNE,19,0.0,0.0,86,0.00,,,0.00,Wunderground v.1.15,2013-08-14 01:45:00,
2013-08-13 20:47:00,80.1,76.2,29.90,NNE,19,0.0,0.0,88,0.00,,---,0.00,VWS V14.01,2013-08-14 01:47:00,
2013-08-13 20:50:00,80.1,76.2,29.90,NNE,19,0.0,0.0,88,0.00,,,0.00,Wunderground v.1.15,2013-08-14 01:50:00,
2013-08-13 20:52:00,80.1,76.2,29.90,NNE,19,0.0,0.0,88,0.00,,---,0.00,VWS V14.01,2013-08-14 01:52:00,
2013-08-13 20:55:00,79.9,76.0,29.90,NNE,19,0.0,0.0,88,0.00,,,0.00,Wunderground v.1.15,2013-08-14 01:55:00,
2013-08-13 20:59:00,79.8,75.9,29.90,NNE,19,0.0,0.0,88,0.00,,---,0.00,VWS V14.01,2013-08-14 01:59:00,
2013-08-13 21:00:00,79.8,75.9,29.90,NNE,19,0.0,0.0,88,0.00,,,0.00,Wunderground v.1.15,2013-08-14 02:00:00,
2013-08-13 21:04:00,79.6,75.7,29.90,NNE,19,0.0,0.0,88,0.00,,---,0.00,VWS V14.01,2013-08-14 02:04:00,
2013-08-13 21:05:00,79.6,75.7,29.90,NNE,19,0.0,0.0,88,0.00,,,0.00,Wunderground v.1.15,2013-08-14 02:05:00,
2013-08-13 21:09:00,79.4,75.5,29.90,NNE,19,0.0,0.0,88,0.00,,---,0.00,VWS V14.01,2013-08-14 02:09:00,
2013-08-13 21:10:00,79.4,75.5,29.90,NNE,19,0.0,0.0,88,0.00,,,0.00,Wunderground v.1.15,2013-08-14 02:10:00,
2013-08-13 21:14:00,79.4,75.9,29.90,NNE,19,0.0,0.0,89,0.00,,---,0.00,VWS V14.01,2013-08-14 02:14:00,
2013-08-13 21:15:00,79.4,75.9,29.90,NNE,19,0.0,0.0,89,0.00,,,0.00,Wunderground v.1.15,2013-08-14 02:15:00,
2013-08-13 21:20:00,79.2,75.7,29.90,NNE,19,0.0,0.0,89,0.00,,---,0.00,VWS V14.01,2013-08-14 02:20:00,
2013-08-13 21:25:00,78.8,74.9,29.91,NNE,19,2.0,2.0,88,0.00,,---,0.00,VWS V14.01,2013-08-14 02:25:00,
2013-08-13 21:30:00,78.8,74.6,29.91,NNE,19,1.0,3.0,87,0.00,,,0.00,Wunderground v.1.15,2013-08-14 02:30:00,
2013-08-13 21:35:00,78.5,73.3,29.91,NNE,19,2.0,3.0,84,0.00,,,0.00,Wunderground v.1.15,2013-08-14 02:35:00,
2013-08-13 21:36:00,78.5,73.3,29.91,NNE,19,1.0,3.0,84,0.00,,---,0.00,VWS V14.01,2013-08-14 02:36:00,
2013-08-13 21:40:00,78.6,73.0,29.91,NNE,19,2.0,5.0,83,0.00,,,0.00,Wunderground v.1.15,2013-08-14 02:40:00,
2013-08-13 21:41:00,78.6,73.0,29.91,North,8,1.0,5.0,83,0.00,,---,0.00,VWS V14.01,2013-08-14 02:41:00,
2013-08-13 21:46:00,78.6,72.3,29.91,North,8,0.0,5.0,81,0.00,,---,0.00,VWS V14.01,2013-08-14 02:46:00,
2013-08-13 21:50:00,78.8,72.5,29.91,North,9,2.0,3.0,81,0.00,,,0.00,Wunderground v.1.15,2013-08-14 02:50:00,
2013-08-13 21:51:00,78.8,72.5,29.91,North,9,1.0,3.0,81,0.00,,---,0.00,VWS V14.01,2013-08-14 02:51:00,
2013-08-13 21:55:00,78.8,72.5,29.91,North,9,1.0,3.0,81,0.00,,,0.00,Wunderground v.1.15,2013-08-14 02:55:00,
2013-08-13 21:57:00,78.8,72.5,29.91,North,9,1.0,3.0,81,0.00,,---,0.00,VWS V14.01,2013-08-14 02:57:00,
2013-08-13 22:00:00,78.8,72.5,29.92,North,9,1.0,1.0,81,0.00,,,0.00,Wunderground v.1.15,2013-08-14 03:00:00,
2013-08-13 22:02:00,78.8,72.5,29.92,North,9,0.0,0.0,81,0.00,,---,0.00,VWS V14.01,2013-08-14 03:02:00,
2013-08-13 22:05:00,78.8,72.5,29.92,North,9,0.0,1.0,81,0.00,,,0.00,Wunderground v.1.15,2013-08-14 03:05:00,
2013-08-13 22:07:00,78.8,72.8,29.92,North,9,0.0,0.0,82,0.00,,---,0.00,VWS V14.01,2013-08-14 03:07:00,
2013-08-13 22:10:00,78.8,73.2,29.92,North,9,0.0,0.0,83,0.00,,,0.00,Wunderground v.1.15,2013-08-14 03:10:00,
2013-08-13 22:12:00,78.6,73.0,29.92,North,9,0.0,0.0,83,0.00,,---,0.00,VWS V14.01,2013-08-14 03:12:00,
2013-08-13 22:15:00,78.6,73.7,29.92,North,9,0.0,0.0,85,0.00,,,0.00,Wunderground v.1.15,2013-08-14 03:15:00,
2013-08-13 22:18:00,78.5,73.6,29.91,North,9,0.0,0.0,85,0.00,,---,0.00,VWS V14.01,2013-08-14 03:18:00,
2013-08-13 22:20:00,78.3,73.8,29.91,North,9,0.0,0.0,86,0.00,,,0.00,Wunderground v.1.15,2013-08-14 03:20:00,
2013-08-13 22:23:00,78.1,73.6,29.91,North,9,0.0,0.0,86,0.00,,---,0.00,VWS V14.01,2013-08-14 03:23:00,
2013-08-13 22:25:00,77.9,73.4,29.91,North,9,0.0,0.0,86,0.00,,,0.00,Wunderground v.1.15,2013-08-14 03:25:00,
2013-08-13 22:28:00,77.7,73.2,29.91,North,9,0.0,0.0,86,0.00,,---,0.00,VWS V14.01,2013-08-14 03:28:00,
2013-08-13 22:30:00,77.6,73.1,29.91,North,9,0.0,0.0,86,0.00,,,0.00,Wunderground v.1.15,2013-08-14 03:30:00,
2013-08-13 22:33:00,77.6,73.1,29.91,North,9,0.0,0.0,86,0.00,,---,0.00,VWS V14.01,2013-08-14 03:33:00,
2013-08-13 22:35:00,77.2,73.0,29.91,North,9,0.0,0.0,87,0.00,,,0.00,Wunderground v.1.15,2013-08-14 03:35:00,
2013-08-13 22:38:00,77.0,72.8,29.91,North,9,0.0,0.0,87,0.00,,---,0.00,VWS V14.01,2013-08-14 03:38:00,
2013-08-13 22:40:00,77.0,72.8,29.91,North,9,0.0,0.0,87,0.00,,,0.00,Wunderground v.1.15,2013-08-14 03:40:00,
2013-08-13 22:44:00,76.7,72.5,29.91,North,9,0.0,0.0,87,0.00,,---,0.00,VWS V14.01,2013-08-14 03:44:00,
2013-08-13 22:45:00,76.7,72.5,29.91,North,9,0.0,0.0,87,0.00,,,0.00,Wunderground v.1.15,2013-08-14 03:45:00,
2013-08-13 22:49:00,76.5,72.7,29.91,North,9,0.0,0.0,88,0.00,,---,0.00,VWS V14.01,2013-08-14 03:49:00,
2013-08-13 22:50:00,76.3,72.5,29.91,North,9,0.0,0.0,88,0.00,,,0.00,Wunderground v.1.15,2013-08-14 03:50:00,
2013-08-13 22:54:00,76.1,72.3,29.91,North,9,0.0,0.0,88,0.00,,---,0.00,VWS V14.01,2013-08-14 03:54:00,
2013-08-13 22:55:00,76.1,72.6,29.91,North,9,0.0,0.0,89,0.00,,,0.00,Wunderground v.1.15,2013-08-14 03:55:00,
2013-08-13 22:59:00,76.1,72.6,29.91,North,9,0.0,0.0,89,0.00,,---,0.00,VWS V14.01,2013-08-14 03:59:00,
2013-08-13 23:00:00,76.0,72.5,29.91,North,9,0.0,0.0,89,0.00,,,0.00,Wunderground v.1.15,2013-08-14 04:00:00,
2013-08-13 23:01:00,76.0,72.5,29.91,North,9,0.0,0.0,89,0.00,,---,0.00,VWS V14.01,2013-08-14 04:01:00,
2013-08-13 23:05:00,75.8,72.3,29.91,North,9,0.0,0.0,89,0.00,,,0.00,Wunderground v.1.15,2013-08-14 04:05:00,
2013-08-13 23:06:00,75.8,72.3,29.91,North,9,0.0,0.0,89,0.00,,---,0.00,VWS V14.01,2013-08-14 04:06:00,
2013-08-13 23:10:00,75.6,72.5,29.91,North,9,0.0,0.0,90,0.00,,,0.00,Wunderground v.1.15,2013-08-14 04:10:00,
2013-08-13 23:11:00,75.6,72.5,29.91,North,9,0.0,0.0,90,0.00,,---,0.00,VWS V14.01,2013-08-14 04:11:00,
2013-08-13 23:15:00,75.4,72.3,29.91,North,9,0.0,0.0,90,0.00,,,0.00,Wunderground v.1.15,2013-08-14 04:15:00,
2013-08-13 23:16:00,75.4,72.3,29.91,North,9,0.0,0.0,90,0.00,,---,0.00,VWS V14.01,2013-08-14 04:16:00,
2013-08-13 23:20:00,75.3,72.2,29.91,North,9,0.0,0.0,90,0.00,,,0.00,Wunderground v.1.15,2013-08-14 04:20:00,
2013-08-13 23:21:00,75.3,72.2,29.91,North,9,0.0,0.0,90,0.00,,---,0.00,VWS V14.01,2013-08-14 04:21:00,
2013-08-13 23:25:00,75.1,72.0,29.91,North,9,0.0,0.0,90,0.00,,,0.00,Wunderground v.1.15,2013-08-14 04:25:00,
2013-08-13 23:26:00,75.1,72.0,29.91,North,9,0.0,0.0,90,0.00,,---,0.00,VWS V14.01,2013-08-14 04:26:00,
2013-08-13 23:30:00,74.9,72.1,29.91,North,9,0.0,0.0,91,0.00,,,0.00,Wunderground v.1.15,2013-08-14 04:30:00,
2013-08-13 23:31:00,74.9,72.1,29.91,North,9,0.0,0.0,91,0.00,,---,0.00,VWS V14.01,2013-08-14 04:31:00,
2013-08-13 23:35:00,74.7,71.9,29.91,North,9,0.0,0.0,91,0.00,,,0.00,Wunderground v.1.15,2013-08-14 04:35:00,
2013-08-13 23:36:00,74.7,71.9,29.91,North,9,0.0,0.0,91,0.00,,---,0.00,VWS V14.01,2013-08-14 04:36:00,
2013-08-13 23:40:00,74.6,71.8,29.91,North,9,0.0,0.0,91,0.00,,,0.00,Wunderground v.1.15,2013-08-14 04:40:00,
2013-08-13 23:41:00,74.6,71.8,29.91,North,9,0.0,0.0,91,0.00,,---,0.00,VWS V14.01,2013-08-14 04:41:00,
2013-08-13 23:46:00,74.6,72.1,29.92,North,9,0.0,1.0,92,0.00,,---,0.00,VWS V14.01,2013-08-14 04:46:00,
2013-08-13 23:50:00,74.4,71.9,29.92,North,9,0.0,0.0,92,0.00,,,0.00,Wunderground v.1.15,2013-08-14 04:50:00,
2013-08-13 23:52:00,74.4,71.9,29.91,North,9,0.0,0.0,92,0.00,,---,0.00,VWS V14.01,2013-08-14 04:52:00,
2013-08-13 23:55:00,74.4,71.9,29.91,North,9,0.0,0.0,92,0.00,,,0.00,Wunderground v.1.15,2013-08-14 04:55:00,
2013-08-13 23:57:00,74.2,71.7,29.91,North,9,0.0,0.0,92,0.00,,---,0.00,VWS V14.01,2013-08-14 04:57:00,